Location: *
(18.5200°S, 46.4500°E)
Time: 22:20:43
(UTC+00:00)

Abrixas rocket - Pass Details

Date: 19 July 2019
Orbit: 364 x 374 km, 48.4° (Epoch: 19 August)

Event Time Altitude Azimuth Distance (km) Brightness Sun altitude
Rises 15:21:41 0° 338° (NNW) 2,185 6.5 -11.2°
Reaches altitude 10° 15:23:52 10° 351° (N) 1,347 5.2 -11.7°
Maximum altitude 15:26:29 27° 51° (NE) 750 3.2 -12.3°
Enters shadow 15:27:35 21° 87° (E) 887 3.3 -12.5°
